Flag for U.S.A. Weather past 2 weeks in Loma Linda, California, U.S.A.

Now
65 °F

Clear.


Feels Like: 65 °F
Forecast: 63 / 89 °F
Wind: 1 mph from Northwest

Location: Riverside / March Air Force Base

Current Time: Aug 22, 2014 at 5:24:11 AM

Latest Report: Aug 22, 2014 at 4:58 AM


Visibility: 10 mi

Pressure: 29.93 "Hg

Humidity: 93%

Dew point: 63 °F

Location of Loma LindaLocation

Historic Weather in Loma Linda — Graph

°F

Loma Linda temperature yesterday

Maximum temperature yesterday: 89 °F (at 3:58 PM)
Minimum temperature yesterday: 61 °F (at 5:58 AM)
Average temperature yesterday: 74 °F

Past Weeks' High & Low Weather Summary

 TemperatureHumidityPressure
High99 °F (Aug 18, 1:58 PM)100% (Aug 7, 6:58 AM)30.01 "Hg (Aug 7, 6:58 AM)
Low57 °F (Aug 7, 6:58 AM)16% (Aug 18, 1:58 PM)29.75 "Hg (Aug 18, 3:58 PM)
Average76 °F56%29.92 "Hg
* Reported Aug 7 3:58 AM — Aug 22 3:58 AM, Loma Linda, Weather by CustomWeather, © 2014

Note: Actual official high and low records may vary slightly from our data, if they occured in-between our weather recording intervals... More about our weather records

Advertising

Loma Linda weather history for previous 24 hours

 ConditionsComfort  
Time TempWeatherWind HumidityBarometerVisibility
3:58 AM
Aug 22
65 °FClear.3 mph92%29.93 "Hg10 mi
2:58 AM66 °FClear.1 mph86%29.94 "Hg10 mi
1:58 AM67 °FClear.1 mph87%29.94 "Hg10 mi
12:58 AM69 °FClear.1 mph81%29.94 "Hg10 mi
11:58 PM
Aug 21
69 °FClear.5 mph79%29.95 "Hg10 mi
10:58 PM71 °FClear.7 mph74%29.95 "Hg10 mi
9:58 PM73 °FClear.6 mph70%29.96 "Hg10 mi
8:58 PM76 °FClear.2 mph59%29.95 "Hg10 mi
7:58 PM77 °FSunny.6 mph60%29.93 "Hg10 mi
6:58 PM80 °FSunny.9 mph54%29.90 "Hg10 mi
5:58 PM85 °FSunny.14 mph46%29.86 "Hg10 mi
4:58 PM89 °FSunny.13 mph40%29.85 "Hg10 mi
3:58 PM89 °FSunny.2 mph36%29.86 "Hg10 mi
2:58 PM88 °FSunny.5 mph39%29.88 "Hg10 mi
1:58 PM85 °FScattered clouds.10 mph46%29.91 "Hg10 mi
12:58 PM83 °FPassing clouds.2 mph50%29.92 "Hg10 mi
11:58 AM80 °FScattered clouds.5 mph58%29.94 "Hg10 mi
10:58 AM76 °FSunny.2 mph67%29.95 "Hg10 mi
9:58 AM73 °FSunny.3 mph74%29.95 "Hg10 mi
8:58 AM68 °FSunny.No wind85%29.95 "Hg10 mi
7:58 AM65 °FSunny.2 mph94%29.94 "Hg10 mi
6:58 AM62 °FClear.No wind100%29.93 "Hg10 mi
5:58 AM61 °FClear.No wind100%29.91 "Hg10 mi
Weather by CustomWeather, © 2014

See weather overviewHow to use our weather pages